Weather History for Zephyrhills, FL

Change the Weather History Date:

Sunday, March 31, 2013

  Actual Average (KPCM) Record (KPCM)
Temperature  
Mean Temperature 65 °F -  
Max Temperature 82 °F 83 °F 92 °F (1949)
Min Temperature 48 °F 59 °F 35 °F (1971)
Growing Degree Days 15 (Base 50)    
Moisture  
Dew Point 49 °F    
Average Humidity 62    
Maximum Humidity 100    
Minimum Humidity 26    
Precipitation  
Precipitation 0.00 in - - ()
Sea Level Pressure  
Sea Level Pressure 30.12 in    
Wind  
Wind Speed 4 mph (SSW)    
Max Wind Speed 17 mph    
Max Gust Speed 20 mph    
Visibility 10 miles    
Events      
Averages and records for this station are not official NWS values.
T = Trace of Precipitation, MM = Missing Value Source: NWS Daily Summary

Daily Weather History Graph

Daily Weather History Graph

Search for Another Location

Airport:

Trip Planner

Search our weather history database for the weather conditions in past years. The results will help you decide how hot, cold, wet, or windy it might be!

Date:

Astronomy

Mar. 31, 2013 Rise Set
Actual Time 7:19 AM EDT 7:46 PM EDT
Civil Twilight 6:56 AM EDT 8:09 PM EDT
Nautical Twilight 6:28 AM EDT 8:37 PM EDT
Astronomical Twilight 6:00 AM EDT 9:05 PM EDT
Moon No Moon Rise 10:27 AM EDT (3/31)
Length of Visible Light 13h 13m
Length of Day
12h 26m
Waning Gibbous, 78% of the Moon is Illuminated
Mar 31
Waning Gibbous
Apr 3
Last Quarter
Apr 10
New
Apr 18
First Quarter
Apr 25
Full

Hourly Weather History & Observations

Time (EDT) Temp. Dew Point Humidity Pressure Visibility Wind Dir Wind Speed Gust Speed Precip Events Conditions
12:15 AM 51.8 °F 46.4 °F 82% 30.20 in 10.0 mi Calm Calm - N/A   Clear
12:35 AM 51.8 °F 46.4 °F 82% 30.20 in 10.0 mi Calm Calm - N/A   Clear
12:55 AM 50.0 °F 46.4 °F 87% 30.19 in 10.0 mi Calm Calm - N/A   Clear
1:15 AM 50.0 °F 46.4 °F 87% 30.18 in 10.0 mi Calm Calm - N/A   Clear
1:35 AM 50.0 °F 46.4 °F 87% 30.18 in 10.0 mi Calm Calm - N/A   Clear
1:55 AM 50.0 °F 46.4 °F 87% 30.19 in 10.0 mi Calm Calm - N/A   Clear
2:15 AM 51.8 °F 46.4 °F 82% 30.18 in 10.0 mi Calm Calm - N/A   Clear
2:35 AM 51.8 °F 46.4 °F 82% 30.18 in 10.0 mi Calm Calm - N/A   Clear
2:55 AM 50.0 °F 46.4 °F 87% 30.16 in 10.0 mi Calm Calm - N/A   Clear
3:15 AM 50.0 °F 46.4 °F 87% 30.16 in 10.0 mi Calm Calm - N/A   Clear
3:35 AM 50.0 °F 46.4 °F 87% 30.15 in 10.0 mi Calm Calm - N/A   Clear
3:55 AM 50.0 °F 46.4 °F 87% 30.14 in 10.0 mi Calm Calm - N/A   Clear
4:15 AM 50.0 °F 46.4 °F 87% 30.15 in 10.0 mi Calm Calm - N/A   Clear
4:35 AM 50.0 °F 48.2 °F 94% 30.15 in 10.0 mi Calm Calm - N/A   Clear
4:55 AM 50.0 °F 46.4 °F 87% 30.15 in 10.0 mi Calm Calm - N/A   Clear
5:15 AM 50.0 °F 48.2 °F 94% 30.15 in 10.0 mi Calm Calm - N/A   Clear
5:35 AM 50.0 °F 48.2 °F 94% 30.15 in 10.0 mi Calm Calm - N/A   Clear
5:55 AM 50.0 °F 46.4 °F 87% 30.15 in 10.0 mi Calm Calm - N/A   Clear
6:15 AM 50.0 °F 46.4 °F 87% 30.16 in 10.0 mi Calm Calm - N/A   Clear
6:35 AM 48.2 °F 46.4 °F 93% 30.17 in 10.0 mi North 3.5 mph - N/A   Clear
6:55 AM 48.2 °F 46.4 °F 93% 30.17 in 10.0 mi Calm Calm - N/A   Clear
7:15 AM 50.0 °F 48.2 °F 94% 30.18 in 10.0 mi Calm Calm - N/A   Clear
7:35 AM 50.0 °F 50.0 °F 100% 30.18 in 10.0 mi Calm Calm - N/A   Clear
7:55 AM 50.0 °F 50.0 °F 100% 30.19 in 10.0 mi Calm Calm - N/A   Clear
8:15 AM 50.0 °F 50.0 °F 100% 30.18 in 10.0 mi Calm Calm - N/A   Clear
8:35 AM 53.6 °F 51.8 °F 94% 30.19 in 10.0 mi Calm Calm - N/A   Clear
8:55 AM 59.0 °F 53.6 °F 82% 30.20 in 10.0 mi SSE 3.5 mph - N/A   Clear
9:15 AM 62.6 °F 51.8 °F 68% 30.19 in 10.0 mi SSE 4.6 mph - N/A   Clear
9:35 AM 66.2 °F 51.8 °F 60% 30.18 in 10.0 mi SSE 10.4 mph - N/A   Clear
9:55 AM 68.0 °F 51.8 °F 56% 30.18 in 10.0 mi South 9.2 mph - N/A   Clear
10:15 AM 69.8 °F 50.0 °F 49% 30.18 in 10.0 mi South 11.5 mph 16.1 mph N/A   Clear
10:35 AM 71.6 °F 50.0 °F 46% 30.18 in 10.0 mi South 13.8 mph - N/A   Clear
10:55 AM 73.4 °F 48.2 °F 41% 30.18 in 10.0 mi SSE 12.7 mph 17.3 mph N/A   Clear
11:15 AM 73.4 °F 48.2 °F 41% 30.18 in 10.0 mi SSE 10.4 mph - N/A   Clear
11:35 AM 75.2 °F 48.2 °F 38% 30.18 in 10.0 mi SSW 12.7 mph - N/A   Clear
11:55 AM 77.0 °F 46.4 °F 34% 30.17 in 10.0 mi SSE 11.5 mph - N/A   Clear
12:15 PM 77.0 °F 48.2 °F 36% 30.17 in 10.0 mi South 9.2 mph 16.1 mph N/A   Clear
12:35 PM 78.8 °F 44.6 °F 30% 30.16 in 10.0 mi SSW 13.8 mph - N/A   Clear
12:55 PM 78.8 °F 44.6 °F 30% 30.15 in 10.0 mi South 10.4 mph 18.4 mph N/A   Clear
1:15 PM 78.8 °F 44.6 °F 30% 30.15 in 10.0 mi SSE 11.5 mph 18.4 mph N/A   Clear
1:35 PM 80.6 °F 44.6 °F 28% 30.13 in 10.0 mi South 12.7 mph 18.4 mph N/A   Clear
1:55 PM 78.8 °F 44.6 °F 30% 30.13 in 10.0 mi SSW 10.4 mph 16.1 mph N/A   Clear
2:15 PM 78.8 °F 44.6 °F 30% 30.11 in 10.0 mi South 13.8 mph 18.4 mph N/A   Clear
2:35 PM 80.6 °F 42.8 °F 26% 30.10 in 10.0 mi SSE 12.7 mph 18.4 mph N/A   Clear
2:55 PM 80.6 °F 44.6 °F 28% 30.08 in 10.0 mi South 13.8 mph 17.3 mph N/A   Clear
3:15 PM 80.6 °F 42.8 °F 26% 30.07 in 10.0 mi SSE 9.2 mph - N/A   Clear
3:35 PM 82.4 °F 44.6 °F 26% 30.06 in 10.0 mi SSW 9.2 mph 16.1 mph N/A   Clear
3:55 PM 82.4 °F 44.6 °F 26% 30.05 in 10.0 mi South 8.1 mph 19.6 mph N/A   Clear
4:15 PM 80.6 °F 46.4 °F 30% 30.05 in 10.0 mi SSW 11.5 mph 17.3 mph N/A   Clear
4:35 PM 80.6 °F 46.4 °F 30% 30.05 in 10.0 mi SW 17.3 mph - N/A   Clear
4:55 PM 78.8 °F 50.0 °F 36% 30.04 in 10.0 mi SW 11.5 mph 17.3 mph N/A   Clear
5:15 PM 80.6 °F 50.0 °F 34% 30.04 in 10.0 mi SSW 12.7 mph 18.4 mph N/A   Clear
5:35 PM 78.8 °F 50.0 °F 36% 30.05 in 7.0 mi SW 11.5 mph - N/A   Clear
5:55 PM 77.0 °F 50.0 °F 39% 30.05 in 10.0 mi SSW 12.7 mph - N/A   Clear
6:15 PM 77.0 °F 50.0 °F 39% 30.05 in 10.0 mi SW 9.2 mph - N/A   Clear
6:35 PM 77.0 °F 50.0 °F 39% 30.04 in 10.0 mi SSW 8.1 mph - N/A   Clear
6:55 PM 75.2 °F 50.0 °F 41% 30.04 in 10.0 mi SW 9.2 mph - N/A   Clear
7:15 PM 73.4 °F 51.8 °F 47% 30.04 in 10.0 mi SW 8.1 mph - N/A   Clear
7:35 PM 71.6 °F 51.8 °F 50% 30.04 in 10.0 mi SW 8.1 mph - N/A   Clear
7:55 PM 69.8 °F 51.8 °F 53% 30.04 in 10.0 mi SW 6.9 mph - N/A   Clear
8:15 PM 69.8 °F 51.8 °F 53% 30.04 in 10.0 mi SW 5.8 mph - N/A   Clear
8:35 PM 68.0 °F 51.8 °F 56% 30.04 in 10.0 mi SW 5.8 mph - N/A   Clear
8:55 PM 66.2 °F 53.6 °F 64% 30.04 in 10.0 mi WSW 4.6 mph - N/A   Clear
9:15 PM 64.4 °F 53.6 °F 68% 30.05 in 10.0 mi Calm Calm - N/A   Clear
9:35 PM 64.4 °F 53.6 °F 68% 30.04 in 10.0 mi SSW 4.6 mph - N/A   Clear
10:15 PM 62.6 °F 53.6 °F 72% 30.05 in 10.0 mi WSW 4.6 mph - N/A   Clear
10:35 PM 62.6 °F 55.4 °F 77% 30.06 in 10.0 mi SW 4.6 mph - N/A   Clear
11:15 PM 62.6 °F 55.4 °F 77% 30.06 in 10.0 mi Calm Calm - N/A   Clear
11:35 PM 62.6 °F 57.2 °F 82% 30.06 in 10.0 mi South 3.5 mph - N/A   Clear
11:55 PM 60.8 °F 55.4 °F 82% 30.05 in 10.0 mi Calm Calm - N/A   Clear